Fernwood, MS

2:57 AM CST on December 04, 2016 (GMT -0600)
McComb-Pike County-Lewis

Weather History for KMCB - October, 2011

Change the Weather History Date:

Sunday, October 30, 2011

  Actual Average Record
Temperature  
Mean Temperature 50 °F -  
Max Temperature 66 °F 76 °F 88 °F (1951)
Min Temperature 37 °F 51 °F 33 °F (1952)
Degree Days  
Heating Degree Days 14    
Moisture  
Dew Point 38 °F    
Average Humidity 68    
Maximum Humidity 93    
Minimum Humidity 36    
Precipitation  
Precipitation 0.00 in - - ()
Sea Level Pressure  
Sea Level Pressure 30.19 in    
Wind  
Wind Speed 1 mph (South)    
Max Wind Speed 6 mph    
Max Gust Speed -    
Averages and records for this station are not official NWS values.
T = Trace of Precipitation, MM = Missing Value Source: NWS Daily Summary

Daily Weather History Graph

Daily Weather History Graph

Search for Another Location

Airport or City:

Trip Planner

Search our weather history database for the weather conditions in past years. The results will help you decide how hot, cold, wet, or windy it might be!

Date:

Astronomy

Oct. 30, 2011 Rise Set
Actual Time 7:15 AM CDT 6:15 PM CDT
Civil Twilight 6:50 AM CDT 6:39 PM CDT
Nautical Twilight 6:22 AM CDT 7:08 PM CDT
Astronomical Twilight 5:53 AM CDT 7:36 PM CDT
Moon 11:23 AM CDT (10/30) 9:54 PM CDT (10/30)
Length of Visible Light 11h 49m
Length of Day
10h 59m
Waxing Crescent, 20% of the Moon is Illuminated
Oct 30
Waxing Crescent
Nov 2
First Quarter
Nov 10
Full
Nov 18
Last Quarter
Nov 25
New

Hourly Weather History & Observations

Time (CDT) Temp. Dew Point Humidity Pressure Visibility Wind Dir Wind Speed Gust Speed Precip Events Conditions
12:53 AM 41.0 °F 36.0 °F 82% 30.16 in - Calm Calm - N/A   Clear
1:53 AM 37.0 °F 34.0 °F 89% 30.17 in - Calm Calm - N/A   Clear
2:53 AM 37.9 °F 34.0 °F 86% 30.17 in - Calm Calm - N/A   Clear
3:53 AM 37.0 °F 34.0 °F 89% 30.17 in - Calm Calm - N/A   Clear
4:53 AM 37.0 °F 34.0 °F 89% 30.17 in - Calm Calm - N/A   Clear
5:53 AM 37.9 °F 33.1 °F 83% 30.19 in - Calm Calm - N/A   Clear
7:53 AM 41.0 °F 35.1 °F 79% 30.22 in - Calm Calm - N/A   Clear
8:53 AM 46.9 °F 37.0 °F 68% 30.22 in - Calm Calm - N/A   Clear
9:53 AM 51.1 °F 37.9 °F 61% 30.23 in - Variable 3.5 mph - N/A   Clear
10:53 AM 55.9 °F 36.0 °F 47% 30.24 in - East 5.8 mph - N/A   Clear
11:53 AM 61.0 °F 34.0 °F 36% 30.23 in - Variable 3.5 mph - N/A   Clear
12:53 PM 62.1 °F 36.0 °F 38% 30.20 in - Variable 3.5 mph - N/A   Clear
1:53 PM 64.0 °F 39.0 °F 40% 30.18 in - Calm Calm - N/A   Clear
2:53 PM 64.9 °F 39.0 °F 39% 30.16 in - South 4.6 mph - N/A   Clear
3:53 PM 64.9 °F 39.9 °F 40% 30.15 in - Variable 3.5 mph - N/A   Clear
4:53 PM 64.9 °F 39.9 °F 40% 30.15 in - SW 4.6 mph - N/A   Clear
6:53 PM 53.1 °F 44.1 °F 71% 30.16 in - Calm Calm - N/A   Clear
7:53 PM 51.1 °F 44.1 °F 77% 30.17 in - Calm Calm - N/A   Clear
8:53 PM 48.0 °F 43.0 °F 83% 30.18 in - Calm Calm - N/A   Clear
9:53 PM 46.9 °F 42.1 °F 83% 30.19 in - Calm Calm - N/A   Clear
10:53 PM 46.0 °F 42.1 °F 86% 30.20 in - Calm Calm - N/A   Clear
11:53 PM 44.1 °F 42.1 °F 93% 30.21 in - Calm Calm - N/A   Clear